This is the latest recevied weather packets stored in our database for station/object KC2GYU. If no packets are shown the sender has not sent any weather packets the latest 10 day(s).
| Time | Temp. | Humidity | Pressure | Rain* | Wind** | Luminosity | Snow |
|---|---|---|---|---|---|---|---|
| 1778284245 | 13.89° C | 77% | 1013.3 hPa | 0 mm | - | 4 W/m² | - |
| 1778283942 | 13.89° C | 77% | 1013.2 hPa | 0 mm | - | 6 W/m² | - |
| 1778283638 | 13.89° C | 76% | 1013.2 hPa | 0 mm | - | 9 W/m² | - |
| 1778283338 | 13.89° C | 76% | 1013 hPa | 0 mm | - | 12 W/m² | - |
| 1778283035 | 13.89° C | 76% | 1013 hPa | 0 mm | - | 15 W/m² | - |
| 1778282732 | 13.89° C | 76% | 1012.9 hPa | 0 mm | - | 18 W/m² | - |
| 1778282429 | 13.89° C | 76% | 1012.9 hPa | 0 mm | - | 21 W/m² | - |
| 1778282127 | 13.89° C | 76% | 1013 hPa | 0 mm | - | 25 W/m² | - |
| 1778281824 | 13.89° C | 77% | 1013.1 hPa | 0 mm | - | 29 W/m² | - |
| 1778281520 | 14.44° C | 76% | 1012.8 hPa | 0 mm | - | 32 W/m² | - |
| 1778281216 | 14.44° C | 75% | 1012.8 hPa | 0 mm | - | 39 W/m² | - |
| 1778280914 | 14.44° C | 76% | 1012.8 hPa | 0 mm | - | 55 W/m² | - |
| 1778280610 | 14.44° C | 75% | 1012.6 hPa | 0 mm | - | 52 W/m² | - |
| 1778280308 | 14.44° C | 75% | 1012.7 hPa | 0 mm | - | 51 W/m² | - |
| 1778280005 | 14.44° C | 73% | 1012.8 hPa | 0 mm | - | 47 W/m² | - |
| 1778279703 | 14.44° C | 71% | 1012.6 hPa | 0 mm | - | 50 W/m² | - |
| 1778279400 | 15° C | 70% | 1012.8 hPa | 0 mm | - | 54 W/m² | - |
| 1778279097 | 15° C | 69% | 1012.6 hPa | 0 mm | - | 57 W/m² | - |
| 1778278793 | 15° C | 68% | 1012.8 hPa | 0 mm | - | 57 W/m² | - |
| 1778278490 | 15° C | 67% | 1012.8 hPa | 0 mm | - | 116 W/m² | - |
| 1778278186 | 15.56° C | 66% | 1012.4 hPa | 0 mm | - | 189 W/m² | - |
| 1778277883 | 15.56° C | 64% | 1012.7 hPa | 0 mm | - | 205 W/m² | - |
| 1778277579 | 15.56° C | 63% | 1012.5 hPa | 0 mm | - | 218 W/m² | - |
| 1778277276 | 15.56° C | 62% | 1012.7 hPa | 0 mm | - | 231 W/m² | - |
| 1778276972 | 16.11° C | 61% | 1012.7 hPa | 0 mm | - | 254 W/m² | - |
* Rain latest hour (hover to see other rain measurements)
** Current wind speed in m/s (hover to see current wind gust speed)